#timestamp,LO_Frequency,Hit,StdDev 
1619010015.1,286046998.8,N
1619010016.0,286046998.8,N
1619010035.8,286047002.1,N
1619010055.7,286047001.4,N
1619010075.5,286047002.0,N
1619010095.3,286047003.6,N
1619010115.2,286047000.6,N
1619010135.0,286047000.2,N
1619010135.9,286047000.2,N
1619010155.8,286047005.9,N
1619010175.6,286047003.3,N
1619010195.4,286047004.9,N
1619010215.3,286047004.0,N
1619010235.1,286047003.3,N
1619010255.8,286047004.4,N
1619010275.7,286047004.4,N
1619010295.5,286047001.6,N
1619010315.4,286047004.1,N
1619010335.2,286047004.2,N
1619010355.0,286047004.2,N
1619010355.9,286047004.2,N
1619010375.8,286047003.2,N
1619010395.6,286047005.3,N
1619010415.5,286047002.0,N
1619010435.3,286047001.9,N
1619010455.1,286047002.5,N
1619010475.9,286047004.3,N
1619010495.7,286046999.7,N
1619010515.5,286047000.2,N
1619010535.4,286047001.2,N
1619010555.2,286046996.8,N
1619010575.1,286046998.7,N
1619010576.0,286046998.7,N
1619010595.8,286047002.5,N
1619010615.6,286047000.8,N
1619010635.5,286046999.4,N
1619010655.3,286046997.0,N
1619010675.2,286046994.9,N
1619010695.9,286046995.2,N
1619010715.7,286046995.1,N
1619010735.6,286046998.8,N
1619010755.4,286046994.9,N
1619010775.2,286046996.6,N
1619010795.1,286046999.4,N
1619010796.0,286046999.4,N
1619010815.8,286046995.1,N
1619010835.7,286046996.8,N
1619010855.5,286046995.5,N
1619010875.3,286046992.0,N
1619010895.2,286046993.2,N
1619010915.0,286046989.0,Y
1619010915.9,286046989.0,P
1619010935.8,286046992.9,N
1619010955.6,286046991.2,N
1619010975.4,286046991.0,N
1619010995.3,286046992.6,N
1619011015.1,286046992.4,N
1619011035.9,286046988.6,Y
1619011055.7,286046997.3,P
1619011075.5,286046999.4,N
1619011095.4,286047002.7,N
1619011115.2,286047002.6,N
1619011135.1,286047002.6,N
1619011136.0,286047002.6,N
1619011155.8,286047001.0,N
1619011175.6,286046998.7,N
1619011195.5,286047000.3,N
1619011215.3,286047001.5,N
1619011235.2,286047003.7,N
1619011255.9,286047006.3,N
1619011275.7,286047005.3,N
1619011295.6,286047003.9,N
1619011315.4,286047004.1,N
1619011335.2,286047005.9,N
1619011355.1,286047004.8,N
1619011356.0,286047004.8,N
1619011375.8,286047004.6,N
1619011395.7,286047007.1,N
1619011415.5,286047005.9,N
1619011435.3,286047006.6,N
1619011455.2,286047007.4,N
1619011475.0,286047010.1,N
1619011475.9,286047010.1,N
1619011495.8,286047007.8,N
1619011515.6,286047007.9,N
1619011535.4,286047007.9,N
1619011555.3,286047009.0,N
1619011575.1,286047014.7,Y
1619011595.8,286047011.0,P
1619011615.7,286047012.1,P
1619011635.5,286047010.1,N
1619011655.4,286047010.2,Y
1619011675.2,286047001.1,P
1619011695.0,286046999.4,N
1619011695.9,286046999.4,N
1619011715.8,286046998.0,N
1619011735.6,286046998.0,N
1619011755.5,286046998.3,N
1619011775.3,286046999.7,N
1619011795.1,286047000.1,N
1619011815.9,286046999.7,N
1619011835.7,286047002.6,N
1619011855.5,286047003.5,N
1619011875.4,286047004.1,N
1619011895.2,286047005.2,N
1619011915.1,286047008.7,N
1619011916.0,286047008.7,N
1619011935.8,286047008.3,N
1619011955.6,286047008.8,N
1619011975.5,286047006.1,N
1619011995.3,286047009.8,N
1619012015.2,286047010.3,N
1619012035.9,286047010.6,N
1619012055.7,286047008.7,N
1619012075.6,286047006.1,N
1619012095.4,286047008.3,N
1619012115.2,286047008.1,N
1619012135.1,286047008.0,N
1619012136.0,286047011.9,N
1619012155.8,286047007.9,N
1619012175.7,286047010.0,N
1619012195.5,286047011.2,N
1619012215.3,286047014.3,Y
1619012235.2,286047008.5,P
1619012255.0,286047004.9,P
1619012255.9,286047004.9,P
1619012275.8,286047005.8,Y
1619012295.6,286047001.1,P
1619012315.4,286046999.6,N
1619012335.3,286046995.7,N
1619012355.1,286046991.2,N
1619012375.8,286046989.7,N
1619012395.7,286046991.3,N
1619012415.5,286046990.5,N
1619012435.4,286046990.3,N
1619012455.2,286046991.3,N
1619012475.0,286046993.2,N
1619012475.9,286046993.2,N
1619012495.8,286046991.9,N
1619012515.6,286046996.0,N
1619012535.5,286046995.4,N
1619012555.3,286046997.1,N
1619012575.1,286046997.0,N
1619012595.9,286046995.4,N
1619012615.7,286046988.5,N
1619012635.5,286046991.1,N
1619012655.4,286046990.1,N
1619012675.2,286046992.6,N
1619012695.1,286046993.9,N
1619012696.0,286046993.9,N
1619012715.8,286046993.7,N
1619012735.6,286046995.3,N
1619012755.5,286046995.2,N
1619012775.3,286046996.3,N
1619012795.1,286046995.2,N
1619012815.9,286046997.2,N
1619012835.7,286046996.0,N
1619012855.6,286046992.1,N
1619012875.4,286046990.5,Y
1619012895.2,286046990.1,P
1619012915.1,286046986.7,P
1619012916.0,286046986.7,P
1619012935.8,286046985.8,Y
1619012955.7,286047000.9,P
1619012975.5,286047003.5,N
1619012995.3,286047004.4,N
1619013015.2,286047004.1,N
1619013035.0,286046999.8,N
1619013035.9,286046999.8,N
1619013055.8,286046998.1,N
1619013075.6,286047003.3,N
1619013095.4,286047005.6,N
1619013115.3,286047007.5,N
1619013135.1,286047005.8,N
1619013155.8,286047007.0,N
1619013175.7,286047004.6,N
1619013195.5,286047003.4,N
1619013215.4,286047004.5,N
1619013235.2,286047005.8,N
1619013255.0,286047004.4,N
1619013255.9,286047004.4,N
1619013275.8,286047000.4,N
1619013295.6,286046998.7,N
1619013315.4,286047001.5,N
1619013335.3,286047004.2,N
1619013355.1,286047004.8,N
1619013375.9,286047003.2,N
1619013395.7,286047002.8,N
1619013415.5,286047007.5,N
1619013435.4,286047007.3,N
1619013455.2,286047007.9,N
1619013475.0,286047011.0,N
1619013475.9,286047011.0,N
1619013495.8,286047012.8,Y
1619013515.6,286047006.1,P
1619013535.5,286047008.7,P
1619013555.3,286047006.6,P
1619013575.1,286047005.2,Y
1619013595.9,286046999.6,P
